Home   Weather   Nãgpur   Past weeks

Flag for India Past Weather in Nãgpur, Maharashtra, India — Yesterday and Last 2 Weeks

Now
97 °F

Passing clouds.


Feels Like: 94 °F
Forecast: 82 / 104 °F
Wind: 12 mph from North

Location: Nagpur Sonegaon

Current Time: Apr 26, 2017 at 10:06:33 am

Latest Report: Apr 26, 2017 at 9:30 am


Visibility: 4 mi

Pressure: 29.83 "Hg

Humidity: 22%

Dew Point: 52 °F

Location of NãgpurLocation

Past Weather in Nãgpur — Graph

°F

Nãgpur Temperature Yesterday

Maximum temperature yesterday: 106 °F (at 3:30 pm)
Minimum temperature yesterday: 82 °F (at 5:00 am)
Average temperature yesterday: 94 °F

High & Low Weather Summary for the Past Weeks

 TemperatureHumidityPressure
High113 °F (Apr 18, 3:30 pm)39% (Apr 15, 6:00 am)29.92 "Hg (Apr 15, 6:00 am)
Low72 °F (Apr 12, 2:30 am)4% (Apr 12, 3:30 pm)29.56 "Hg (Apr 15, 4:30 pm)
Average96 °F14%29.74 "Hg
* Reported Apr 11 8:30 am — Apr 26 9:00 am, Nãgpur, Weather by CustomWeather, © 2017

Note: Actual official high and low records may vary slightly from our data, if they occured in-between our weather recording intervals... More about our weather records

Advertising

Nãgpur Weather History for the Previous 24 Hours

Scroll right to see more
 ConditionsComfort  
Time TempWeatherWind HumidityBarometerVisibility
9:00 am
Wed, Apr 26
95 °FPassing clouds.10 mph23%29.83 "Hg4 mi
8:30 am91 °FScattered clouds.14 mph24%29.83 "Hg4 mi
8:00 am91 °FScattered clouds.15 mph23%29.83 "Hg4 mi
7:30 am90 °FPassing clouds.13 mph24%29.83 "Hg4 mi
7:00 am88 °FPassing clouds.9 mph24%29.80 "Hg4 mi
6:00 am81 °FHaze.3 mph28%29.77 "Hg3 mi
5:30 am82 °FHaze.6 mph26%29.77 "Hg3 mi
4:30 am84 °FHaze.3 mph25%29.74 "Hg3 mi
4:00 am88 °FHaze.2 mph24%29.74 "Hg3 mi
2:30 am84 °FHaze.2 mph27%29.74 "Hg3 mi
1:30 am86 °FHaze.2 mph25%29.74 "Hg3 mi
12:30 am86 °FHaze.5 mph25%29.77 "Hg3 mi
12:00 am88 °FHaze.3 mph25%29.77 "Hg3 mi
11:30 pm
Tue, Apr 25
88 °FHaze.5 mph25%29.77 "Hg3 mi
11:00 pm88 °FHaze.2 mph24%29.77 "Hg3 mi
10:30 pm88 °FHaze.3 mph24%29.77 "Hg3 mi
10:00 pm88 °FHaze.No wind24%29.77 "Hg3 mi
9:30 pm91 °FHaze.3 mph21%29.77 "Hg3 mi
9:00 pm93 °FHaze.No wind20%29.77 "Hg3 mi
8:30 pm95 °FHaze.2 mph18%29.74 "Hg3 mi
8:00 pm95 °FHaze.5 mph18%29.74 "Hg3 mi
7:00 pm99 °FHaze.6 mph15%29.71 "Hg3 mi
6:30 pm100 °FHaze.6 mph15%29.71 "Hg3 mi
6:00 pm102 °FHaze.9 mph12%29.71 "Hg3 mi
5:30 pm104 °FPassing clouds.12 mph12%29.71 "Hg4 mi
5:00 pm104 °FPassing clouds.10 mph11%29.71 "Hg4 mi
4:30 pm104 °FPassing clouds.9 mph12%29.71 "Hg4 mi
4:00 pm106 °FPassing clouds.17 mph12%29.71 "Hg4 mi
3:30 pm106 °FPassing clouds.18 mph12%29.71 "Hg4 mi
3:00 pm104 °FPassing clouds.8 mph13%29.74 "Hg4 mi
2:30 pm104 °FPassing clouds.15 mph13%29.74 "Hg4 mi
2:00 pm104 °FPassing clouds.3 mph13%29.74 "Hg4 mi
1:30 pm104 °FExtremely hot.16 mph12%29.77 "HgN/A
12:30 pm102 °FClear.14 mph16%29.80 "Hg4 mi
12:00 pm100 °FClear.13 mph17%29.83 "Hg4 mi
11:30 am99 °FClear.14 mph17%29.83 "Hg4 mi
11:00 am99 °FClear.15 mph16%29.83 "Hg4 mi
10:30 am97 °FClear.14 mph18%29.86 "Hg4 mi
10:00 am97 °FClear.14 mph19%29.86 "Hg4 mi
Weather by CustomWeather, © 2017

See weather overviewHow to use our weather pages